Year,Month,Day,Hour,Minute,Value (Times are PST for temperature in C)
2016,08,26,00,00,19.10
2016,08,26,00,01,19.10
2016,08,26,00,02,19.10
2016,08,26,00,03,19.10
2016,08,26,00,04,19.10
2016,08,26,00,05,19.10
2016,08,26,00,06,19.10
2016,08,26,00,07,19.10
2016,08,26,00,08,19.10
2016,08,26,00,09,19.10
2016,08,26,00,10,19.10
2016,08,26,00,11,19.10
2016,08,26,00,12,19.10
2016,08,26,00,13,19.10
2016,08,26,00,14,19.10
2016,08,26,00,15,19.10
2016,08,26,00,16,19.10
2016,08,26,00,17,19.10
2016,08,26,00,18,19.10
2016,08,26,00,19,19.10
2016,08,26,00,20,19.10
2016,08,26,00,21,19.10
2016,08,26,00,22,19.10
2016,08,26,00,23,19.10
2016,08,26,00,24,19.10
2016,08,26,00,25,19.10
2016,08,26,00,26,19.10
2016,08,26,00,27,19.10
2016,08,26,00,28,19.10
2016,08,26,00,29,19.10
2016,08,26,00,30,19.10
2016,08,26,00,31,19.10
2016,08,26,00,32,19.10
2016,08,26,00,33,19.10
2016,08,26,00,34,19.10
2016,08,26,00,35,19.20
2016,08,26,00,36,19.20
2016,08,26,00,37,19.20
2016,08,26,00,38,19.20
2016,08,26,00,39,19.20
2016,08,26,00,40,19.20
2016,08,26,00,41,19.20
2016,08,26,00,42,19.20
2016,08,26,00,43,19.10
2016,08,26,00,44,19.10
2016,08,26,00,45,19.20
2016,08,26,00,46,19.20
2016,08,26,00,47,19.20
2016,08,26,00,48,19.20
2016,08,26,00,49,19.20
2016,08,26,00,50,19.20
2016,08,26,00,51,19.10
2016,08,26,00,52,19.10
2016,08,26,00,53,19.10
2016,08,26,00,54,19.10
2016,08,26,00,55,18.90
2016,08,26,00,56,18.90
2016,08,26,00,57,18.80
2016,08,26,00,58,18.80
2016,08,26,00,59,18.70
2016,08,26,01,00,18.60
2016,08,26,01,01,18.60
2016,08,26,01,02,18.50
2016,08,26,01,03,18.50
2016,08,26,01,04,18.40
2016,08,26,01,05,18.30
2016,08,26,01,06,18.30
2016,08,26,01,07,18.20
2016,08,26,01,08,18.20
2016,08,26,01,09,18.20
2016,08,26,01,10,18.20
2016,08,26,01,11,18.20
2016,08,26,01,12,18.20
2016,08,26,01,13,18.10
2016,08,26,01,14,18.10
2016,08,26,01,15,18.10
2016,08,26,01,16,18.10
2016,08,26,01,17,18.10
2016,08,26,01,18,18.00
2016,08,26,01,19,17.90
2016,08,26,01,20,17.90
2016,08,26,01,21,17.90
2016,08,26,01,22,17.90
2016,08,26,01,23,17.90
2016,08,26,01,24,17.90
2016,08,26,01,25,17.90
2016,08,26,01,26,17.90
2016,08,26,01,27,17.90
2016,08,26,01,28,17.90
2016,08,26,01,29,17.80
2016,08,26,01,30,17.80
2016,08,26,01,31,17.80
2016,08,26,01,32,17.80
2016,08,26,01,33,17.80
2016,08,26,01,34,17.80
2016,08,26,01,35,17.80
2016,08,26,01,36,17.80
2016,08,26,01,37,17.80
2016,08,26,01,38,17.80
2016,08,26,01,39,17.80
2016,08,26,01,40,17.70
2016,08,26,01,41,17.70
2016,08,26,01,42,17.70
2016,08,26,01,43,17.70
2016,08,26,01,44,17.70
2016,08,26,01,45,17.70
2016,08,26,01,46,17.60
2016,08,26,01,47,17.60
2016,08,26,01,48,17.60
2016,08,26,01,49,17.60
2016,08,26,01,50,17.60
2016,08,26,01,51,17.60
2016,08,26,01,52,17.60
2016,08,26,01,53,17.70
2016,08,26,01,54,17.70
2016,08,26,01,55,17.80
2016,08,26,01,56,17.90
2016,08,26,01,57,17.90
2016,08,26,01,58,17.90
2016,08,26,01,59,17.90
2016,08,26,02,00,18.10
2016,08,26,02,01,18.10
2016,08,26,02,02,18.10
2016,08,26,02,03,18.10
2016,08,26,02,04,18.20
2016,08,26,02,05,18.20
2016,08,26,02,06,18.20
2016,08,26,02,07,18.20
2016,08,26,02,08,18.10
2016,08,26,02,09,18.10
2016,08,26,02,10,18.10
2016,08,26,02,11,18.10
2016,08,26,02,12,18.10
2016,08,26,02,13,18.10
2016,08,26,02,14,18.10
2016,08,26,02,15,18.20
2016,08,26,02,16,18.20
2016,08,26,02,17,18.20
2016,08,26,02,18,18.30
2016,08,26,02,19,18.30
2016,08,26,02,20,18.30
2016,08,26,02,21,18.40
2016,08,26,02,22,18.40
2016,08,26,02,23,18.40
2016,08,26,02,24,18.40
2016,08,26,02,25,18.40
2016,08,26,02,26,18.40
2016,08,26,02,27,18.50
2016,08,26,02,28,18.50
2016,08,26,02,29,18.50
2016,08,26,02,30,18.50
2016,08,26,02,31,18.60
2016,08,26,02,32,18.60
2016,08,26,02,33,18.70
2016,08,26,02,34,18.70
2016,08,26,02,35,18.70
2016,08,26,02,36,18.70
2016,08,26,02,37,18.70
2016,08,26,02,38,18.70
2016,08,26,02,39,18.70
2016,08,26,02,40,18.70
2016,08,26,02,41,18.70
2016,08,26,02,42,18.70
2016,08,26,02,43,18.60
2016,08,26,02,44,18.50
2016,08,26,02,45,18.40
2016,08,26,02,46,18.30
2016,08,26,02,47,18.20
2016,08,26,02,48,18.20
2016,08,26,02,49,18.10
2016,08,26,02,50,18.10
2016,08,26,02,51,18.00
2016,08,26,02,52,17.90
2016,08,26,02,53,17.90
2016,08,26,02,54,17.90
2016,08,26,02,55,17.90
2016,08,26,02,56,18.00
2016,08,26,02,57,18.10
2016,08,26,02,58,18.10
2016,08,26,02,59,18.10
2016,08,26,03,00,18.10
2016,08,26,03,01,18.10
2016,08,26,03,02,18.10
2016,08,26,03,03,18.10
2016,08,26,03,04,18.00
2016,08,26,03,05,17.90
2016,08,26,03,06,17.90
2016,08,26,03,07,17.90
2016,08,26,03,08,17.90
2016,08,26,03,09,17.90
2016,08,26,03,10,17.90
2016,08,26,03,11,17.90
2016,08,26,03,12,17.90
2016,08,26,03,13,17.90
2016,08,26,03,14,17.90
2016,08,26,03,15,17.90
2016,08,26,03,16,17.90
2016,08,26,03,17,18.10
2016,08,26,03,18,18.10
2016,08,26,03,19,18.20
2016,08,26,03,20,18.20
2016,08,26,03,21,18.20
2016,08,26,03,22,18.30
2016,08,26,03,23,18.30
2016,08,26,03,24,18.40
2016,08,26,03,25,18.40
2016,08,26,03,26,18.50
2016,08,26,03,27,18.50
2016,08,26,03,28,18.60
2016,08,26,03,29,18.60
2016,08,26,03,30,18.70
2016,08,26,03,31,18.70
2016,08,26,03,32,18.70
2016,08,26,03,33,18.80
2016,08,26,03,34,18.80
2016,08,26,03,35,18.90
2016,08,26,03,36,18.90
2016,08,26,03,37,18.90
2016,08,26,03,38,18.90
2016,08,26,03,39,18.90
2016,08,26,03,40,18.90
2016,08,26,03,41,18.90
2016,08,26,03,42,18.90
2016,08,26,03,43,18.90
2016,08,26,03,44,18.90
2016,08,26,03,45,18.90
2016,08,26,03,46,18.90
2016,08,26,03,47,18.90
2016,08,26,03,48,18.90
2016,08,26,03,49,18.90
2016,08,26,03,50,18.90
2016,08,26,03,51,18.90
2016,08,26,03,52,18.90
2016,08,26,03,53,18.90
2016,08,26,03,54,18.90
2016,08,26,03,55,18.90
2016,08,26,03,56,18.90
2016,08,26,03,57,18.90
2016,08,26,03,58,18.90
2016,08,26,03,59,18.90
2016,08,26,04,00,18.90
2016,08,26,04,01,18.90
2016,08,26,04,02,19.00
2016,08,26,04,03,19.10
2016,08,26,04,04,19.10
2016,08,26,04,05,19.10
2016,08,26,04,06,19.10
2016,08,26,04,07,19.10
2016,08,26,04,08,19.10
2016,08,26,04,09,19.10
2016,08,26,04,10,19.10
2016,08,26,04,11,19.10
2016,08,26,04,12,19.10
2016,08,26,04,13,19.10
2016,08,26,04,14,19.10
2016,08,26,04,15,19.10
2016,08,26,04,16,19.10
2016,08,26,04,17,19.10
2016,08,26,04,18,19.20
2016,08,26,04,19,19.20
2016,08,26,04,20,19.20
2016,08,26,04,21,19.20
2016,08,26,04,22,19.30
2016,08,26,04,23,19.30
2016,08,26,04,24,19.40
2016,08,26,04,25,19.50
2016,08,26,04,26,19.60
2016,08,26,04,27,19.70
2016,08,26,04,28,19.80
2016,08,26,04,29,19.90
2016,08,26,04,30,20.10
2016,08,26,04,31,20.20
2016,08,26,04,32,20.30
2016,08,26,04,33,20.40
2016,08,26,04,34,20.50
2016,08,26,04,35,20.60
2016,08,26,04,36,20.70
2016,08,26,04,37,20.80
2016,08,26,04,38,20.90
2016,08,26,04,39,20.90
2016,08,26,04,40,21.00
2016,08,26,04,41,21.00
2016,08,26,04,42,21.00
2016,08,26,04,43,21.10
2016,08,26,04,44,21.10
2016,08,26,04,45,21.10
2016,08,26,04,46,21.10
2016,08,26,04,47,21.10
2016,08,26,04,48,21.10
2016,08,26,04,49,21.20
2016,08,26,04,50,21.20
2016,08,26,04,51,21.20
2016,08,26,04,52,21.20
2016,08,26,04,53,21.20
2016,08,26,04,54,21.20
2016,08,26,04,55,21.20
2016,08,26,04,56,21.10
2016,08,26,04,57,21.10
2016,08,26,04,58,21.00
2016,08,26,04,59,21.00
2016,08,26,05,00,20.90
2016,08,26,05,01,20.90
2016,08,26,05,02,20.80
2016,08,26,05,03,20.80
2016,08,26,05,04,20.70
2016,08,26,05,05,20.60
2016,08,26,05,06,20.60
2016,08,26,05,07,20.50
2016,08,26,05,08,20.50
2016,08,26,05,09,20.50
2016,08,26,05,10,20.40
2016,08,26,05,11,20.40
2016,08,26,05,12,20.30
2016,08,26,05,13,20.30
2016,08,26,05,14,20.20
2016,08,26,05,15,20.20
2016,08,26,05,16,20.20
2016,08,26,05,17,20.20
2016,08,26,05,18,20.20
2016,08,26,05,19,20.20
2016,08,26,05,20,20.20
2016,08,26,05,21,20.20
2016,08,26,05,22,20.20
2016,08,26,05,23,20.20
2016,08,26,05,24,20.20
2016,08,26,05,25,20.20
2016,08,26,05,26,20.20
2016,08,26,05,27,20.20
2016,08,26,05,28,20.20
2016,08,26,05,29,20.20
2016,08,26,05,30,20.10
2016,08,26,05,31,19.90
2016,08,26,05,32,19.70
2016,08,26,05,33,19.50
2016,08,26,05,34,19.30
2016,08,26,05,35,19.20
2016,08,26,05,36,19.10
2016,08,26,05,37,18.90
2016,08,26,05,38,18.80
2016,08,26,05,39,18.70
2016,08,26,05,40,18.70
2016,08,26,05,41,18.60
2016,08,26,05,42,18.50
2016,08,26,05,43,18.50
2016,08,26,05,44,18.50
2016,08,26,05,45,18.50
2016,08,26,05,46,18.50
2016,08,26,05,47,18.50
2016,08,26,05,48,18.60
2016,08,26,05,49,18.70
2016,08,26,05,50,18.80
2016,08,26,05,51,18.70
2016,08,26,05,52,18.70
2016,08,26,05,53,18.80
2016,08,26,05,54,18.80
2016,08,26,05,55,18.80
2016,08,26,05,56,18.80
2016,08,26,05,57,18.80
2016,08,26,05,58,18.80
2016,08,26,05,59,18.60
2016,08,26,06,00,18.50
2016,08,26,06,01,18.30
2016,08,26,06,02,18.20
2016,08,26,06,03,18.00
2016,08,26,06,04,17.70
2016,08,26,06,05,17.50
2016,08,26,06,06,17.30
2016,08,26,06,07,17.10
2016,08,26,06,08,16.90
2016,08,26,06,09,16.80
2016,08,26,06,10,16.70
2016,08,26,06,11,16.60
2016,08,26,06,12,16.50
2016,08,26,06,13,16.40
2016,08,26,06,14,16.40
2016,08,26,06,15,16.30
2016,08,26,06,16,16.30
2016,08,26,06,17,16.20
2016,08,26,06,18,16.20
2016,08,26,06,19,16.10
2016,08,26,06,20,16.10
2016,08,26,06,21,16.10
2016,08,26,06,22,16.10
2016,08,26,06,23,16.10
2016,08,26,06,24,16.10
2016,08,26,06,25,15.90
2016,08,26,06,26,15.90
2016,08,26,06,27,15.90
2016,08,26,06,28,15.90
2016,08,26,06,29,15.80
2016,08,26,06,30,15.80
2016,08,26,06,31,15.80
2016,08,26,06,32,15.80
2016,08,26,06,33,15.80
2016,08,26,06,34,15.80
2016,08,26,06,35,15.80
2016,08,26,06,36,15.80
2016,08,26,06,37,15.80
2016,08,26,06,38,15.80
2016,08,26,06,39,15.80
2016,08,26,06,40,15.80
2016,08,26,06,41,15.70
2016,08,26,06,42,15.70
2016,08,26,06,43,15.70
2016,08,26,06,44,15.70
2016,08,26,06,45,15.70
2016,08,26,06,46,15.70
2016,08,26,06,47,15.80
2016,08,26,06,48,15.80
2016,08,26,06,49,15.80
2016,08,26,06,50,15.80
2016,08,26,06,51,15.80
2016,08,26,06,52,15.90
2016,08,26,06,53,15.90
2016,08,26,06,54,15.90
2016,08,26,06,55,15.90
2016,08,26,06,56,15.90
2016,08,26,06,57,15.90
2016,08,26,06,58,15.90
2016,08,26,06,59,15.90
2016,08,26,07,00,15.90
2016,08,26,07,01,16.00
2016,08,26,07,02,16.10
2016,08,26,07,03,16.10
2016,08,26,07,04,16.10
2016,08,26,07,05,16.10
2016,08,26,07,06,16.10
2016,08,26,07,07,16.10
2016,08,26,07,08,16.10
2016,08,26,07,09,16.10
2016,08,26,07,10,16.10
2016,08,26,07,11,16.10
2016,08,26,07,12,16.10
2016,08,26,07,13,16.10
2016,08,26,07,14,16.10
2016,08,26,07,15,16.10
2016,08,26,07,16,16.10
2016,08,26,07,17,16.10
2016,08,26,07,18,16.10
2016,08,26,07,19,16.10
2016,08,26,07,20,16.10
2016,08,26,07,21,16.10
2016,08,26,07,22,16.10
2016,08,26,07,23,16.10
2016,08,26,07,24,16.10
2016,08,26,07,25,16.10
2016,08,26,07,26,16.20
2016,08,26,07,27,16.20
2016,08,26,07,28,16.20
2016,08,26,07,29,16.20
2016,08,26,07,30,16.20
2016,08,26,07,31,16.30
2016,08,26,07,32,16.30
2016,08,26,07,33,16.30
2016,08,26,07,34,16.30
2016,08,26,07,35,16.30
2016,08,26,07,36,16.30
2016,08,26,07,37,16.40
2016,08,26,07,38,16.40
2016,08,26,07,39,16.40
2016,08,26,07,40,16.40
2016,08,26,07,41,16.40
2016,08,26,07,42,16.40
2016,08,26,07,43,16.40
2016,08,26,07,44,16.40
2016,08,26,07,45,16.50
2016,08,26,07,46,16.60
2016,08,26,07,47,16.60
2016,08,26,07,48,16.70
2016,08,26,07,49,16.70
2016,08,26,07,50,16.80
2016,08,26,07,51,16.80
2016,08,26,07,52,16.90
2016,08,26,07,53,16.90
2016,08,26,07,54,17.00
2016,08,26,07,55,17.00
2016,08,26,07,56,17.10
2016,08,26,07,57,17.10
2016,08,26,07,58,17.20
2016,08,26,07,59,17.20
2016,08,26,08,00,17.30
2016,08,26,08,01,17.30
2016,08,26,08,02,17.30
2016,08,26,08,03,17.30
2016,08,26,08,04,17.40
2016,08,26,08,05,17.50
2016,08,26,08,06,17.50
2016,08,26,08,07,17.60
2016,08,26,08,08,17.70
2016,08,26,08,09,17.70
2016,08,26,08,10,17.80
2016,08,26,08,11,17.80
2016,08,26,08,12,17.80
2016,08,26,08,13,17.80
2016,08,26,08,14,17.90
2016,08,26,08,15,17.90
2016,08,26,08,16,17.90
2016,08,26,08,17,18.00
2016,08,26,08,18,18.10
2016,08,26,08,19,18.20
2016,08,26,08,20,18.20
2016,08,26,08,21,18.30
2016,08,26,08,22,18.40
2016,08,26,08,23,18.50
2016,08,26,08,24,18.60
2016,08,26,08,25,18.70
2016,08,26,08,26,18.80
2016,08,26,08,27,18.90
2016,08,26,08,28,19.00
2016,08,26,08,29,19.20
2016,08,26,08,30,19.40
2016,08,26,08,31,19.60
2016,08,26,08,32,19.80
2016,08,26,08,33,20.00
2016,08,26,08,34,20.20
2016,08,26,08,35,20.30
2016,08,26,08,36,20.40
2016,08,26,08,37,20.50
2016,08,26,08,38,20.60
2016,08,26,08,39,20.70
2016,08,26,08,40,20.80
2016,08,26,08,41,20.90
2016,08,26,08,42,21.00
2016,08,26,08,43,21.00
2016,08,26,08,44,21.10
2016,08,26,08,45,21.10
2016,08,26,08,46,21.10
2016,08,26,08,47,21.20
2016,08,26,08,48,21.20
2016,08,26,08,49,21.20
2016,08,26,08,50,21.20
2016,08,26,08,51,21.20
2016,08,26,08,52,21.30
2016,08,26,08,53,21.30
2016,08,26,08,54,21.30
2016,08,26,08,55,21.30
2016,08,26,08,56,21.30
2016,08,26,08,57,21.30
2016,08,26,08,58,21.30
2016,08,26,08,59,21.40
2016,08,26,09,00,21.40
2016,08,26,09,01,21.40
2016,08,26,09,02,21.40
2016,08,26,09,03,21.40
2016,08,26,09,04,21.50
2016,08,26,09,05,21.60
2016,08,26,09,06,21.60
2016,08,26,09,07,21.60
2016,08,26,09,08,21.60
2016,08,26,09,09,21.70
2016,08,26,09,10,21.80
2016,08,26,09,11,21.80
2016,08,26,09,12,21.90
2016,08,26,09,13,21.90
2016,08,26,09,14,22.00
2016,08,26,09,15,22.00
2016,08,26,09,16,22.10
2016,08,26,09,17,22.10
2016,08,26,09,18,22.20
2016,08,26,09,19,22.30
2016,08,26,09,20,22.30
2016,08,26,09,21,22.40
2016,08,26,09,22,22.50
2016,08,26,09,23,22.50
2016,08,26,09,24,22.50
2016,08,26,09,25,22.60
2016,08,26,09,26,22.70
2016,08,26,09,27,22.70
2016,08,26,09,28,22.80
2016,08,26,09,29,22.90
2016,08,26,09,30,23.00
2016,08,26,09,31,23.20
2016,08,26,09,32,23.30
2016,08,26,09,33,23.40
2016,08,26,09,34,23.50
2016,08,26,09,35,23.60
2016,08,26,09,36,23.70
2016,08,26,09,37,23.70
2016,08,26,09,38,23.80
2016,08,26,09,39,23.90
2016,08,26,09,40,23.90
2016,08,26,09,41,24.00
2016,08,26,09,42,24.10
2016,08,26,09,43,24.20
2016,08,26,09,44,24.30
2016,08,26,09,45,24.40
2016,08,26,09,46,24.40
2016,08,26,09,47,24.40
2016,08,26,09,48,24.40
2016,08,26,09,49,24.40
2016,08,26,09,50,24.40
2016,08,26,09,51,24.30
2016,08,26,09,52,24.20
2016,08,26,09,53,24.10
2016,08,26,09,54,24.10
2016,08,26,09,55,24.10
2016,08,26,09,56,24.10
2016,08,26,09,57,24.20
2016,08,26,09,58,24.40
2016,08,26,09,59,24.50
2016,08,26,10,00,24.50
2016,08,26,10,01,24.70
2016,08,26,10,02,24.80
2016,08,26,10,03,24.90
2016,08,26,10,04,25.00
2016,08,26,10,05,25.20
2016,08,26,10,06,25.30
2016,08,26,10,07,25.40
2016,08,26,10,08,25.50
2016,08,26,10,09,25.60
2016,08,26,10,10,25.70
2016,08,26,10,11,25.80
2016,08,26,10,12,25.80
2016,08,26,10,13,25.80
2016,08,26,10,14,25.80
2016,08,26,10,15,25.90
2016,08,26,10,16,25.90
2016,08,26,10,17,26.00
2016,08,26,10,18,26.10
2016,08,26,10,19,26.20
2016,08,26,10,20,26.20
2016,08,26,10,21,26.30
2016,08,26,10,22,26.40
2016,08,26,10,23,26.40
2016,08,26,10,24,26.40
2016,08,26,10,25,26.40
2016,08,26,10,26,26.40
2016,08,26,10,27,26.40
2016,08,26,10,28,26.30
2016,08,26,10,29,26.20
2016,08,26,10,30,26.10
2016,08,26,10,31,26.20
2016,08,26,10,32,26.30
2016,08,26,10,33,26.30
2016,08,26,10,34,26.40
2016,08,26,10,35,26.40
2016,08,26,10,36,26.60
2016,08,26,10,37,26.60
2016,08,26,10,38,26.60
2016,08,26,10,39,26.60
2016,08,26,10,40,26.60
2016,08,26,10,41,26.70
2016,08,26,10,42,26.80
2016,08,26,10,43,26.90
2016,08,26,10,44,27.00
2016,08,26,10,45,27.20
2016,08,26,10,46,27.30
2016,08,26,10,47,27.30
2016,08,26,10,48,27.50
2016,08,26,10,49,27.60
2016,08,26,10,50,27.70
2016,08,26,10,51,27.70
2016,08,26,10,52,27.70
2016,08,26,10,53,27.80
2016,08,26,10,54,27.80
2016,08,26,10,55,27.80
2016,08,26,10,56,27.80
2016,08,26,10,57,27.80
2016,08,26,10,58,27.80
2016,08,26,10,59,27.70
2016,08,26,11,00,27.70
2016,08,26,11,01,27.80
2016,08,26,11,02,27.80
2016,08,26,11,03,27.80
2016,08,26,11,04,27.70
2016,08,26,11,05,27.70
2016,08,26,11,06,27.70
2016,08,26,11,07,27.70
2016,08,26,11,08,27.80
2016,08,26,11,09,28.00
2016,08,26,11,10,27.90
2016,08,26,11,11,27.90
2016,08,26,11,12,27.90
2016,08,26,11,13,27.90
2016,08,26,11,14,28.00
2016,08,26,11,15,28.10
2016,08,26,11,16,28.10
2016,08,26,11,17,28.10
2016,08,26,11,18,28.20
2016,08,26,11,19,28.30
2016,08,26,11,20,28.30
2016,08,26,11,21,28.40
2016,08,26,11,22,28.40
2016,08,26,11,23,28.30
2016,08,26,11,24,28.20
2016,08,26,11,25,28.10
2016,08,26,11,26,28.10
2016,08,26,11,27,28.20
2016,08,26,11,28,28.20
2016,08,26,11,29,28.30
2016,08,26,11,30,28.30
2016,08,26,11,31,28.30
2016,08,26,11,32,28.40
2016,08,26,11,33,28.40
2016,08,26,11,34,28.40
2016,08,26,11,35,28.30
2016,08,26,11,36,28.30
2016,08,26,11,37,28.40
2016,08,26,11,38,28.30
2016,08,26,11,39,28.30
2016,08,26,11,40,28.30
2016,08,26,11,41,28.30
2016,08,26,11,42,28.20
2016,08,26,11,43,28.20
2016,08,26,11,44,28.20
2016,08,26,11,45,28.10
2016,08,26,11,46,28.10
2016,08,26,11,47,28.10
2016,08,26,11,48,28.20
2016,08,26,11,49,28.30
2016,08,26,11,50,28.30
2016,08,26,11,51,28.30
2016,08,26,11,52,28.20
2016,08,26,11,53,28.20
2016,08,26,11,54,28.20
2016,08,26,11,55,28.10
2016,08,26,11,56,28.10
2016,08,26,11,57,28.20
2016,08,26,11,58,28.30
2016,08,26,11,59,28.40
2016,08,26,12,00,28.50
2016,08,26,12,01,28.60
2016,08,26,12,02,28.60
2016,08,26,12,03,28.60
2016,08,26,12,04,28.70
2016,08,26,12,05,28.80
2016,08,26,12,06,28.80
2016,08,26,12,07,28.70
2016,08,26,12,08,28.70
2016,08,26,12,09,28.80
2016,08,26,12,10,28.90
2016,08,26,12,11,29.00
2016,08,26,12,12,29.10
2016,08,26,12,13,29.10
2016,08,26,12,14,29.20
2016,08,26,12,15,29.20
2016,08,26,12,16,29.20
2016,08,26,12,17,29.00
2016,08,26,12,18,28.90
2016,08,26,12,19,28.90
2016,08,26,12,20,28.80
2016,08,26,12,21,28.80
2016,08,26,12,22,28.80
2016,08,26,12,23,28.90
2016,08,26,12,24,28.90
2016,08,26,12,25,28.90
2016,08,26,12,26,28.80
2016,08,26,12,27,28.70
2016,08,26,12,28,28.60
2016,08,26,12,29,28.60
2016,08,26,12,30,28.60
2016,08,26,12,31,28.60
2016,08,26,12,32,28.70
2016,08,26,12,33,28.70
2016,08,26,12,34,28.60
2016,08,26,12,35,28.60
2016,08,26,12,36,28.60
2016,08,26,12,37,28.50
2016,08,26,12,38,28.40
2016,08,26,12,39,28.40
2016,08,26,12,40,28.40
2016,08,26,12,41,28.40
2016,08,26,12,42,28.30
2016,08,26,12,43,28.30
2016,08,26,12,44,28.30
2016,08,26,12,45,28.30
2016,08,26,12,46,28.30
2016,08,26,12,47,28.30
2016,08,26,12,48,28.40
2016,08,26,12,49,28.50
2016,08,26,12,50,28.60
2016,08,26,12,51,28.50
2016,08,26,12,52,28.30
2016,08,26,12,53,27.80
2016,08,26,12,54,27.30
2016,08,26,12,55,27.00
2016,08,26,12,56,26.60
2016,08,26,12,57,26.50
2016,08,26,12,58,26.30
2016,08,26,12,59,26.00
2016,08,26,13,00,25.80
2016,08,26,13,01,25.50
2016,08,26,13,02,25.30
2016,08,26,13,03,25.20
2016,08,26,13,04,25.00
2016,08,26,13,05,24.90
2016,08,26,13,06,24.80
2016,08,26,13,07,24.70
2016,08,26,13,08,24.70
2016,08,26,13,09,24.70
2016,08,26,13,10,24.80
2016,08,26,13,11,24.80
2016,08,26,13,12,24.80
2016,08,26,13,13,24.80
2016,08,26,13,14,24.90
2016,08,26,13,15,25.00
2016,08,26,13,16,25.00
2016,08,26,13,17,25.00
2016,08,26,13,18,25.00
2016,08,26,13,19,25.00
2016,08,26,13,20,24.90
2016,08,26,13,21,24.90
2016,08,26,13,22,24.80
2016,08,26,13,23,24.80
2016,08,26,13,24,24.80
2016,08,26,13,25,24.90
2016,08,26,13,26,25.00
2016,08,26,13,27,25.00
2016,08,26,13,28,25.00
2016,08,26,13,29,25.00
2016,08,26,13,30,25.00
2016,08,26,13,31,24.90
2016,08,26,13,32,24.90
2016,08,26,13,33,24.90
2016,08,26,13,34,24.90
2016,08,26,13,35,24.80
2016,08,26,13,36,24.80
2016,08,26,13,37,24.80
2016,08,26,13,38,24.70
2016,08,26,13,39,24.60
2016,08,26,13,40,24.50
2016,08,26,13,41,24.50
2016,08,26,13,42,24.60
2016,08,26,13,43,24.60
2016,08,26,13,44,24.70
2016,08,26,13,45,24.70
2016,08,26,13,46,24.70
2016,08,26,13,47,24.80
2016,08,26,13,48,24.80
2016,08,26,13,49,24.80
2016,08,26,13,50,24.90
2016,08,26,13,51,24.90
2016,08,26,13,52,24.80
2016,08,26,13,53,24.80
2016,08,26,13,54,24.80
2016,08,26,13,55,24.80
2016,08,26,13,56,24.90
2016,08,26,13,57,24.90
2016,08,26,13,58,24.80
2016,08,26,13,59,24.70
2016,08,26,14,00,24.70
2016,08,26,14,01,24.70
2016,08,26,14,02,24.70
2016,08,26,14,03,24.80
2016,08,26,14,04,24.80
2016,08,26,14,05,24.90
2016,08,26,14,06,25.00
2016,08,26,14,07,25.10
2016,08,26,14,08,25.20
2016,08,26,14,09,25.30
2016,08,26,14,10,25.50
2016,08,26,14,11,25.60
2016,08,26,14,12,25.60
2016,08,26,14,13,25.70
2016,08,26,14,14,25.70
2016,08,26,14,15,25.70
2016,08,26,14,16,25.70
2016,08,26,14,17,25.70
2016,08,26,14,18,25.60
2016,08,26,14,19,25.60
2016,08,26,14,20,25.60
2016,08,26,14,21,25.60
2016,08,26,14,22,25.60
2016,08,26,14,23,25.60
2016,08,26,14,24,25.60
2016,08,26,14,25,25.60
2016,08,26,14,26,25.70
2016,08,26,14,27,25.90
2016,08,26,14,28,26.00
2016,08,26,14,29,25.90
2016,08,26,14,30,25.90
2016,08,26,14,31,25.90
2016,08,26,14,32,26.00
2016,08,26,14,33,26.00
2016,08,26,14,34,26.00
2016,08,26,14,35,25.90
2016,08,26,14,36,25.90
2016,08,26,14,37,25.90
2016,08,26,14,38,25.80
2016,08,26,14,39,25.80
2016,08,26,14,40,25.80
2016,08,26,14,41,25.80
2016,08,26,14,42,25.80
2016,08,26,14,43,25.90
2016,08,26,14,44,26.10
2016,08,26,14,45,26.20
2016,08,26,14,46,26.40
2016,08,26,14,47,26.60
2016,08,26,14,48,26.60
2016,08,26,14,49,26.80
2016,08,26,14,50,26.90
2016,08,26,14,51,27.10
2016,08,26,14,52,27.30
2016,08,26,14,53,27.40
2016,08,26,14,54,27.50
2016,08,26,14,55,27.60
2016,08,26,14,56,27.80
2016,08,26,14,57,27.90
2016,08,26,14,58,27.90
2016,08,26,14,59,27.90
2016,08,26,15,00,27.80
2016,08,26,15,01,27.70
2016,08,26,15,02,27.60
2016,08,26,15,03,27.60
2016,08,26,15,04,27.60
2016,08,26,15,05,27.60
2016,08,26,15,06,27.70
2016,08,26,15,07,27.60
2016,08,26,15,08,27.40
2016,08,26,15,09,27.30
2016,08,26,15,10,27.40
2016,08,26,15,11,27.50
2016,08,26,15,12,27.60
2016,08,26,15,13,27.60
2016,08,26,15,14,27.70
2016,08,26,15,15,27.80
2016,08,26,15,16,27.90
2016,08,26,15,17,28.00
2016,08,26,15,18,28.00
2016,08,26,15,19,28.00
2016,08,26,15,20,28.00
2016,08,26,15,21,28.10
2016,08,26,15,22,28.00
2016,08,26,15,23,28.00
2016,08,26,15,24,27.90
2016,08,26,15,25,27.70
2016,08,26,15,26,27.70
2016,08,26,15,27,27.60
2016,08,26,15,28,27.60
2016,08,26,15,29,27.70
2016,08,26,15,30,27.70
2016,08,26,15,31,27.80
2016,08,26,15,32,28.00
2016,08,26,15,33,28.00
2016,08,26,15,34,28.00
2016,08,26,15,35,28.00
2016,08,26,15,36,28.10
2016,08,26,15,37,28.00
2016,08,26,15,38,27.90
2016,08,26,15,39,27.80
2016,08,26,15,40,27.80
2016,08,26,15,41,27.70
2016,08,26,15,42,27.70
2016,08,26,15,43,27.80
2016,08,26,15,44,27.90
2016,08,26,15,45,28.00
2016,08,26,15,46,28.10
2016,08,26,15,47,28.10
2016,08,26,15,48,28.10
2016,08,26,15,49,28.20
2016,08,26,15,50,28.20
2016,08,26,15,51,28.30
2016,08,26,15,52,28.20
2016,08,26,15,53,28.10
2016,08,26,15,54,28.10
2016,08,26,15,55,28.20
2016,08,26,15,56,28.20
2016,08,26,15,57,28.30
2016,08,26,15,58,28.30
2016,08,26,15,59,28.30
2016,08,26,16,00,28.30
2016,08,26,16,01,28.30
2016,08,26,16,02,28.40
2016,08,26,16,03,28.40
2016,08,26,16,04,28.30
2016,08,26,16,05,28.20
2016,08,26,16,06,28.10
2016,08,26,16,07,28.10
2016,08,26,16,08,28.20
2016,08,26,16,09,28.20
2016,08,26,16,10,28.20
2016,08,26,16,11,28.20
2016,08,26,16,12,28.30
2016,08,26,16,13,28.30
2016,08,26,16,14,28.30
2016,08,26,16,15,28.40
2016,08,26,16,16,28.50
2016,08,26,16,17,28.60
2016,08,26,16,18,28.70
2016,08,26,16,19,28.70
2016,08,26,16,20,28.70
2016,08,26,16,21,28.60
2016,08,26,16,22,28.40
2016,08,26,16,23,28.30
2016,08,26,16,24,28.20
2016,08,26,16,25,28.20
2016,08,26,16,26,28.20
2016,08,26,16,27,28.20
2016,08,26,16,28,28.20
2016,08,26,16,29,28.30
2016,08,26,16,30,28.40
2016,08,26,16,31,28.40
2016,08,26,16,32,28.30
2016,08,26,16,33,28.40
2016,08,26,16,34,28.30
2016,08,26,16,35,28.20
2016,08,26,16,36,28.30
2016,08,26,16,37,28.20
2016,08,26,16,38,28.20
2016,08,26,16,39,28.30
2016,08,26,16,40,28.30
2016,08,26,16,41,28.30
2016,08,26,16,42,28.10
2016,08,26,16,43,28.00
2016,08,26,16,44,27.90
2016,08,26,16,45,27.80
2016,08,26,16,46,27.60
2016,08,26,16,47,27.30
2016,08,26,16,48,27.20
2016,08,26,16,49,27.00
2016,08,26,16,50,26.90
2016,08,26,16,51,26.80
2016,08,26,16,52,26.60
2016,08,26,16,53,26.50
2016,08,26,16,54,26.40
2016,08,26,16,55,26.40
2016,08,26,16,56,26.40
2016,08,26,16,57,26.40
2016,08,26,16,58,26.40
2016,08,26,16,59,26.40
2016,08,26,17,00,26.50
2016,08,26,17,01,26.60
2016,08,26,17,02,26.40
2016,08,26,17,03,26.40
2016,08,26,17,04,26.30
2016,08,26,17,05,26.10
2016,08,26,17,06,26.00
2016,08,26,17,07,26.00
2016,08,26,17,08,26.00
2016,08,26,17,09,25.90
2016,08,26,17,10,25.90
2016,08,26,17,11,25.90
2016,08,26,17,12,25.90
2016,08,26,17,13,25.80
2016,08,26,17,14,25.80
2016,08,26,17,15,25.80
2016,08,26,17,16,25.80
2016,08,26,17,17,25.80
2016,08,26,17,18,25.80
2016,08,26,17,19,25.80